Showing default

COSMOS 2302, 23444

Orbit data source: Space-Track

COSMOS 2302, 23444 is a payload satellite owned by VKS (CIS) in LEO that was launched on Mon, 26 Dec 1994 UTC via a TSIKLON-3 launch vehicle from the Plesetsk Missile And Space Complex (PKMTR). Payload-class satellites include a variety of spacecraft equipped with specific instruments for various scientific and technological missions. These include communications satellites like Starlink; space stations such as the ISS; scientific satellites like the Hubble; Earth observation satellites from companies like Planet Labs, Umbra, and HawkEye 360; GPS; miniature CubeSats for education and research; and military/defense satellites.

Loading next visibility...
Identifier
23444, 1994-086D
Orbit
LEO
Country
Flag of CISCIS
Related business
Manufacturer
NPO PM
Mission
Defense Communications
Bus & Motor
STRELA-3, Unknown motor
Mass
225 kg wet, 225 kg dry
Launch date (UTC)
1994-12-26 (31 years ago)
Launch vehicle
TSIKLON-3
Launch site
Plesetsk Missile And Space Complex (PKMTR)
Object type
Payload
Rocket body
Debris
Shape & HBR
Cyl, 0.8 m
Radar Cross Section
1.257 m², Medium (>0.1 m² and < 1m²)

Expand to show TLE details & history
Last TLE update: 8 hours ago

TLE from 8 hours ago
0 COSMOS 2302
1 23444U 94086D   26071.29983994  .00000030  00000-0  11077-3 0  9995
2 23444  82.5679  29.0948 0008160  47.7982  70.4947 12.61270187436605
Epoch: 2026-03-12T07:11Z
TLE epoch observation values (Epoch: 2026-03-12T07:11:46.170Z)
Latitude
60.82765°
Longitude
-82.24474°
Altitude
1,425.923 km
Speed
7.155 km/s
True Right ascension
13h 02m 35s
True Declination
60° 41' 37"
Sunlit
Object was in daylight at epoch
Visualization orbit readout
Latitude
Unknown
Longitude
Unknown
Altitude
Unknown
Speed
Unknown
Apparent Right ascension
Unknown
Apparent Declination
Unknown
Sunlit
N/A
Visualization observer readout
Local Sidereal Time
19:32:53
Azimuth
Unknown
Elevation
Unknown
Doppler factor
Unknown
Orbital elements
Apogee altitude
1,421.388 km
Perigee altitude
1,408.669 km
Semi-major axis
7,793.166 km
Eccentricity
0.00082
Inclination
82.5679°
RAAN
29.0948°
Arg. of periapsis
47.7982°
True anomaly
70.58287°
Mean anomaly
70.4947°
Eccentric anomaly
70.53878°
Mean motion
3.1548 °/min
Orbital period
114.11 mins
BSTAR
0.00011077
Loading maneuver chart data...
Computing Atmospheric mass density...
Loading historical data...
Loading historical data...
Loading historical data...
Loading historical data...
Loading historical data...
Loading historical data...
Loading historical data...

Documentation

Showing up to 5 results
|